#datetime,building,power
2023-01-10T00:00:00,atd,23.76
2023-01-10T00:01:00,atd,24.86
2023-01-10T00:02:00,atd,24.55
2023-01-10T00:03:00,atd,25.38
2023-01-10T00:04:00,atd,23.66
2023-01-10T00:05:00,atd,26.05
2023-01-10T00:06:00,atd,25.06
2023-01-10T00:07:00,atd,22.60
2023-01-10T00:08:00,atd,23.60
2023-01-10T00:09:00,atd,18.13
2023-01-10T00:10:00,atd,21.17
2023-01-10T00:11:00,atd,18.88
2023-01-10T00:12:00,atd,21.87
2023-01-10T00:13:00,atd,21.22
2023-01-10T00:14:00,atd,21.29
2023-01-10T00:15:00,atd,24.33
2023-01-10T00:16:00,atd,20.64
2023-01-10T00:17:00,atd,27.27
2023-01-10T00:18:00,atd,23.36
2023-01-10T00:19:00,atd,25.15
2023-01-10T00:20:00,atd,20.86
2023-01-10T00:21:00,atd,20.00
2023-01-10T00:22:00,atd,16.52
2023-01-10T00:23:00,atd,24.04
2023-01-10T00:24:00,atd,23.61
2023-01-10T00:25:00,atd,22.07
2023-01-10T00:26:00,atd,23.57
2023-01-10T00:27:00,atd,22.38
2023-01-10T00:28:00,atd,25.65
2023-01-10T00:29:00,atd,21.70
2023-01-10T00:30:00,atd,22.48
2023-01-10T00:31:00,atd,25.19
2023-01-10T00:32:00,atd,26.33
2023-01-10T00:33:00,atd,27.34
2023-01-10T00:34:00,atd,26.79
2023-01-10T00:35:00,atd,23.96
2023-01-10T00:36:00,atd,24.24
2023-01-10T00:37:00,atd,24.72
2023-01-10T00:38:00,atd,21.28
2023-01-10T00:39:00,atd,23.80
2023-01-10T00:40:00,atd,21.99
2023-01-10T00:41:00,atd,21.95
2023-01-10T00:42:00,atd,24.45
2023-01-10T00:43:00,atd,22.58
2023-01-10T00:44:00,atd,22.52
2023-01-10T00:45:00,atd,25.13
2023-01-10T00:46:00,atd,23.61
2023-01-10T00:47:00,atd,22.89
2023-01-10T00:48:00,atd,24.47
2023-01-10T00:49:00,atd,24.00
2023-01-10T00:50:00,atd,23.20
2023-01-10T00:51:00,atd,23.52
2023-01-10T00:52:00,atd,20.55
2023-01-10T00:53:00,atd,19.14
2023-01-10T00:54:00,atd,19.82
2023-01-10T00:55:00,atd,23.20
2023-01-10T00:56:00,atd,24.24
2023-01-10T00:57:00,atd,25.82
2023-01-10T00:58:00,atd,21.08
2023-01-10T00:59:00,atd,23.68
2023-01-10T01:00:00,atd,23.05
2023-01-10T01:01:00,atd,24.33
2023-01-10T01:02:00,atd,18.62
2023-01-10T01:03:00,atd,21.22
2023-01-10T01:04:00,atd,23.08
2023-01-10T01:05:00,atd,22.28
2023-01-10T01:06:00,atd,20.36
2023-01-10T01:07:00,atd,20.10
2023-01-10T01:08:00,atd,16.40
2023-01-10T01:09:00,atd,20.48
2023-01-10T01:10:00,atd,21.20
2023-01-10T01:11:00,atd,21.06
2023-01-10T01:12:00,atd,20.90
2023-01-10T01:13:00,atd,20.79
2023-01-10T01:14:00,atd,18.95
2023-01-10T01:15:00,atd,23.80
2023-01-10T01:16:00,atd,19.46
2023-01-10T01:17:00,atd,33.59
2023-01-10T01:18:00,atd,45.37
2023-01-10T01:19:00,atd,35.24
2023-01-10T01:20:00,atd,36.61
2023-01-10T01:21:00,atd,25.86
2023-01-10T01:22:00,atd,27.73
2023-01-10T01:23:00,atd,19.58
2023-01-10T01:24:00,atd,21.13
2023-01-10T01:25:00,atd,20.07
2023-01-10T01:26:00,atd,19.61
2023-01-10T01:27:00,atd,19.97
2023-01-10T01:28:00,atd,25.78
2023-01-10T01:29:00,atd,25.83
2023-01-10T01:30:00,atd,23.22
2023-01-10T01:31:00,atd,25.23
2023-01-10T01:32:00,atd,23.76
2023-01-10T01:33:00,atd,23.48
2023-01-10T01:34:00,atd,25.48
2023-01-10T01:35:00,atd,21.22
2023-01-10T01:36:00,atd,22.16
2023-01-10T01:37:00,atd,21.65
2023-01-10T01:38:00,atd,24.90
2023-01-10T01:39:00,atd,22.90
2023-01-10T01:40:00,atd,36.61
2023-01-10T01:41:00,atd,35.71
2023-01-10T01:42:00,atd,38.11
2023-01-10T01:43:00,atd,33.99
2023-01-10T01:44:00,atd,24.71
2023-01-10T01:45:00,atd,20.42
2023-01-10T01:46:00,atd,21.82
2023-01-10T01:47:00,atd,19.84
2023-01-10T01:48:00,atd,22.54
2023-01-10T01:49:00,atd,23.93
2023-01-10T01:50:00,atd,22.38
2023-01-10T01:51:00,atd,22.77
2023-01-10T01:52:00,atd,20.56
2023-01-10T01:53:00,atd,21.37
2023-01-10T01:54:00,atd,21.55
2023-01-10T01:55:00,atd,20.86
2023-01-10T01:56:00,atd,21.25
2023-01-10T01:57:00,atd,20.66
2023-01-10T01:58:00,atd,36.84
2023-01-10T01:59:00,atd,24.92
2023-01-10T02:00:00,atd,23.13
2023-01-10T02:01:00,atd,23.77
2023-01-10T02:02:00,atd,26.32
2023-01-10T02:03:00,atd,24.82
2023-01-10T02:04:00,atd,22.72
2023-01-10T02:05:00,atd,18.02
2023-01-10T02:06:00,atd,19.60
2023-01-10T02:07:00,atd,22.80
2023-01-10T02:08:00,atd,19.41
2023-01-10T02:09:00,atd,21.60
2023-01-10T02:10:00,atd,23.06
2023-01-10T02:11:00,atd,23.85
2023-01-10T02:12:00,atd,18.14
2023-01-10T02:13:00,atd,21.15
2023-01-10T02:14:00,atd,19.38
2023-01-10T02:15:00,atd,21.25
2023-01-10T02:16:00,atd,33.36
2023-01-10T02:17:00,atd,21.18
2023-01-10T02:18:00,atd,23.44
2023-01-10T02:19:00,atd,20.94
2023-01-10T02:20:00,atd,23.26
2023-01-10T02:21:00,atd,24.06
2023-01-10T02:22:00,atd,22.53
2023-01-10T02:23:00,atd,23.09
2023-01-10T02:24:00,atd,20.33
2023-01-10T02:25:00,atd,23.14
2023-01-10T02:26:00,atd,20.30
2023-01-10T02:27:00,atd,28.93
2023-01-10T02:28:00,atd,17.94
2023-01-10T02:29:00,atd,22.80
2023-01-10T02:30:00,atd,20.60
2023-01-10T02:31:00,atd,24.83
2023-01-10T02:32:00,atd,21.98
2023-01-10T02:33:00,atd,22.37
2023-01-10T02:34:00,atd,19.74
2023-01-10T02:35:00,atd,27.97
2023-01-10T02:36:00,atd,36.67
2023-01-10T02:37:00,atd,24.17
2023-01-10T02:38:00,atd,25.00
2023-01-10T02:39:00,atd,26.25
2023-01-10T02:40:00,atd,26.73
2023-01-10T02:41:00,atd,27.44
2023-01-10T02:42:00,atd,29.02
2023-01-10T02:43:00,atd,29.78
2023-01-10T02:44:00,atd,22.34
2023-01-10T02:45:00,atd,22.38
2023-01-10T02:46:00,atd,22.80
2023-01-10T02:47:00,atd,20.89
2023-01-10T02:48:00,atd,23.56
2023-01-10T02:49:00,atd,22.00
2023-01-10T02:50:00,atd,24.48
2023-01-10T02:51:00,atd,20.53
2023-01-10T02:52:00,atd,20.50
2023-01-10T02:53:00,atd,21.28
2023-01-10T02:54:00,atd,23.24
2023-01-10T02:55:00,atd,22.86
2023-01-10T02:56:00,atd,20.86
2023-01-10T02:57:00,atd,25.33
2023-01-10T02:58:00,atd,26.87
2023-01-10T02:59:00,atd,21.61
2023-01-10T03:00:00,atd,21.95
2023-01-10T03:01:00,atd,21.97
2023-01-10T03:02:00,atd,22.42
2023-01-10T03:03:00,atd,23.81
2023-01-10T03:04:00,atd,25.91
2023-01-10T03:05:00,atd,25.82
2023-01-10T03:06:00,atd,26.19
2023-01-10T03:07:00,atd,21.99
2023-01-10T03:08:00,atd,19.79
2023-01-10T03:09:00,atd,19.94
2023-01-10T03:10:00,atd,22.30
2023-01-10T03:11:00,atd,25.53
2023-01-10T03:12:00,atd,22.13
2023-01-10T03:13:00,atd,21.74
2023-01-10T03:14:00,atd,18.37
2023-01-10T03:15:00,atd,26.01
2023-01-10T03:16:00,atd,35.88
2023-01-10T03:17:00,atd,21.79
2023-01-10T03:18:00,atd,27.44
2023-01-10T03:19:00,atd,25.45
2023-01-10T03:20:00,atd,29.18
2023-01-10T03:21:00,atd,24.09
2023-01-10T03:22:00,atd,25.59
2023-01-10T03:23:00,atd,30.28
2023-01-10T03:24:00,atd,30.04
2023-01-10T03:25:00,atd,27.65
2023-01-10T03:26:00,atd,25.59
2023-01-10T03:27:00,atd,25.71
2023-01-10T03:28:00,atd,24.09
2023-01-10T03:29:00,atd,23.87
2023-01-10T03:30:00,atd,25.34
2023-01-10T03:31:00,atd,23.17
2023-01-10T03:32:00,atd,23.17
2023-01-10T03:33:00,atd,25.82
2023-01-10T03:34:00,atd,21.79
2023-01-10T03:35:00,atd,35.66
2023-01-10T03:36:00,atd,23.25
2023-01-10T03:37:00,atd,21.94
2023-01-10T03:38:00,atd,22.78
2023-01-10T03:39:00,atd,23.18
2023-01-10T03:40:00,atd,21.42
2023-01-10T03:41:00,atd,20.92
2023-01-10T03:42:00,atd,22.30
2023-01-10T03:43:00,atd,19.18
2023-01-10T03:44:00,atd,27.28
2023-01-10T03:45:00,atd,21.30
2023-01-10T03:46:00,atd,20.37
2023-01-10T03:47:00,atd,19.85
2023-01-10T03:48:00,atd,21.28
2023-01-10T03:49:00,atd,28.41
2023-01-10T03:50:00,atd,22.05
2023-01-10T03:51:00,atd,23.70
2023-01-10T03:52:00,atd,25.07
2023-01-10T03:53:00,atd,22.30
2023-01-10T03:54:00,atd,31.01
2023-01-10T03:55:00,atd,18.54
2023-01-10T03:56:00,atd,18.76
2023-01-10T03:57:00,atd,17.21
2023-01-10T03:58:00,atd,19.21
2023-01-10T03:59:00,atd,19.22
2023-01-10T04:00:00,atd,19.52
2023-01-10T04:01:00,atd,18.30
2023-01-10T04:02:00,atd,22.11
2023-01-10T04:03:00,atd,20.66
2023-01-10T04:04:00,atd,20.09
2023-01-10T04:05:00,atd,19.22
2023-01-10T04:06:00,atd,23.34
2023-01-10T04:07:00,atd,21.19
2023-01-10T04:08:00,atd,22.46
2023-01-10T04:09:00,atd,23.81
2023-01-10T04:10:00,atd,24.56
2023-01-10T04:11:00,atd,26.05
2023-01-10T04:12:00,atd,16.73
2023-01-10T04:13:00,atd,19.37
2023-01-10T04:14:00,atd,17.91
2023-01-10T04:15:00,atd,18.84
2023-01-10T04:16:00,atd,18.80
2023-01-10T04:17:00,atd,21.49
2023-01-10T04:18:00,atd,21.30
2023-01-10T04:19:00,atd,25.02
2023-01-10T04:20:00,atd,21.94
2023-01-10T04:21:00,atd,20.23
2023-01-10T04:22:00,atd,19.35
2023-01-10T04:23:00,atd,19.52
2023-01-10T04:24:00,atd,23.66
2023-01-10T04:25:00,atd,20.45
2023-01-10T04:26:00,atd,21.37
2023-01-10T04:27:00,atd,23.68
2023-01-10T04:28:00,atd,30.38
2023-01-10T04:29:00,atd,30.93
2023-01-10T04:30:00,atd,33.80
2023-01-10T04:31:00,atd,31.09
2023-01-10T04:32:00,atd,27.91
2023-01-10T04:33:00,atd,36.02
2023-01-10T04:34:00,atd,24.71
2023-01-10T04:35:00,atd,22.99
2023-01-10T04:36:00,atd,22.54
2023-01-10T04:37:00,atd,24.08
2023-01-10T04:38:00,atd,22.22
2023-01-10T04:39:00,atd,23.55
2023-01-10T04:40:00,atd,25.93
2023-01-10T04:41:00,atd,23.07
2023-01-10T04:42:00,atd,25.38
2023-01-10T04:43:00,atd,25.13
2023-01-10T04:44:00,atd,22.45
2023-01-10T04:45:00,atd,27.75
2023-01-10T04:46:00,atd,29.01
2023-01-10T04:47:00,atd,28.13
2023-01-10T04:48:00,atd,32.73
2023-01-10T04:49:00,atd,28.57
2023-01-10T04:50:00,atd,22.30
2023-01-10T04:51:00,atd,22.83
2023-01-10T04:52:00,atd,23.11
2023-01-10T04:53:00,atd,32.57
2023-01-10T04:54:00,atd,21.76
2023-01-10T04:55:00,atd,20.90
2023-01-10T04:56:00,atd,20.54
2023-01-10T04:57:00,atd,19.14
2023-01-10T04:58:00,atd,19.55
2023-01-10T04:59:00,atd,19.97
2023-01-10T05:00:00,atd,20.69
2023-01-10T05:01:00,atd,20.32
2023-01-10T05:02:00,atd,36.34
2023-01-10T05:03:00,atd,30.74
2023-01-10T05:04:00,atd,32.39
2023-01-10T05:05:00,atd,38.02
2023-01-10T05:06:00,atd,23.99
2023-01-10T05:07:00,atd,22.42
2023-01-10T05:08:00,atd,21.60
2023-01-10T05:09:00,atd,21.57
2023-01-10T05:10:00,atd,22.73
2023-01-10T05:11:00,atd,23.06
2023-01-10T05:12:00,atd,22.66
2023-01-10T05:13:00,atd,26.93
2023-01-10T05:14:00,atd,20.82
2023-01-10T05:15:00,atd,24.04
2023-01-10T05:16:00,atd,22.12
2023-01-10T05:17:00,atd,21.01
2023-01-10T05:18:00,atd,20.87
2023-01-10T05:19:00,atd,21.92
2023-01-10T05:20:00,atd,19.77
2023-01-10T05:21:00,atd,24.03
2023-01-10T05:22:00,atd,22.63
2023-01-10T05:23:00,atd,23.57
2023-01-10T05:24:00,atd,22.53
2023-01-10T05:25:00,atd,22.92
2023-01-10T05:26:00,atd,27.37
2023-01-10T05:27:00,atd,26.35
2023-01-10T05:28:00,atd,27.92
2023-01-10T05:29:00,atd,24.03
2023-01-10T05:30:00,atd,26.13
2023-01-10T05:31:00,atd,24.64
2023-01-10T05:32:00,atd,29.51
2023-01-10T05:33:00,atd,38.27
2023-01-10T05:34:00,atd,22.99
2023-01-10T05:35:00,atd,23.48
2023-01-10T05:36:00,atd,24.12
2023-01-10T05:37:00,atd,24.98
2023-01-10T05:38:00,atd,22.04
2023-01-10T05:39:00,atd,20.59
2023-01-10T05:40:00,atd,24.63
2023-01-10T05:41:00,atd,21.24
2023-01-10T05:42:00,atd,19.77
2023-01-10T05:43:00,atd,23.67
2023-01-10T05:44:00,atd,24.45
2023-01-10T05:45:00,atd,23.88
2023-01-10T05:46:00,atd,26.19
2023-01-10T05:47:00,atd,22.71
2023-01-10T05:48:00,atd,22.60
2023-01-10T05:49:00,atd,24.56
2023-01-10T05:50:00,atd,24.04
2023-01-10T05:51:00,atd,25.45
2023-01-10T05:52:00,atd,34.37
2023-01-10T05:53:00,atd,22.82
2023-01-10T05:54:00,atd,25.67
2023-01-10T05:55:00,atd,19.91
2023-01-10T05:56:00,atd,21.06
2023-01-10T05:57:00,atd,22.64
2023-01-10T05:58:00,atd,20.87
2023-01-10T05:59:00,atd,19.91
2023-01-10T06:00:00,atd,21.64
2023-01-10T06:01:00,atd,26.41
2023-01-10T06:02:00,atd,27.86
2023-01-10T06:03:00,atd,33.43
2023-01-10T06:04:00,atd,32.30
2023-01-10T06:05:00,atd,31.44
2023-01-10T06:06:00,atd,34.00
2023-01-10T06:07:00,atd,31.68
2023-01-10T06:08:00,atd,36.71
2023-01-10T06:09:00,atd,35.55
2023-01-10T06:10:00,atd,35.78
2023-01-10T06:11:00,atd,32.91
2023-01-10T06:12:00,atd,33.66
2023-01-10T06:13:00,atd,34.89
2023-01-10T06:14:00,atd,37.84
2023-01-10T06:15:00,atd,36.47
2023-01-10T06:16:00,atd,40.68
2023-01-10T06:17:00,atd,39.11
2023-01-10T06:18:00,atd,31.89
2023-01-10T06:19:00,atd,32.80
2023-01-10T06:20:00,atd,35.23
2023-01-10T06:21:00,atd,34.89
2023-01-10T06:22:00,atd,41.25
2023-01-10T06:23:00,atd,40.46
2023-01-10T06:24:00,atd,42.32
2023-01-10T06:25:00,atd,42.83
2023-01-10T06:26:00,atd,42.43
2023-01-10T06:27:00,atd,43.08
2023-01-10T06:28:00,atd,42.64
2023-01-10T06:29:00,atd,44.39
2023-01-10T06:30:00,atd,53.21
2023-01-10T06:31:00,atd,54.70
2023-01-10T06:32:00,atd,58.62
2023-01-10T06:33:00,atd,60.01
2023-01-10T06:34:00,atd,59.34
2023-01-10T06:35:00,atd,55.69
2023-01-10T06:36:00,atd,56.26
2023-01-10T06:37:00,atd,56.21
2023-01-10T06:38:00,atd,57.89
2023-01-10T06:39:00,atd,53.72
2023-01-10T06:40:00,atd,56.52
2023-01-10T06:41:00,atd,68.62
2023-01-10T06:42:00,atd,72.72
2023-01-10T06:43:00,atd,52.48
2023-01-10T06:44:00,atd,51.47
2023-01-10T06:45:00,atd,48.67
2023-01-10T06:46:00,atd,49.62
2023-01-10T06:47:00,atd,57.23
2023-01-10T06:48:00,atd,48.27
2023-01-10T06:49:00,atd,47.64
2023-01-10T06:50:00,atd,48.80
2023-01-10T06:51:00,atd,49.94
2023-01-10T06:52:00,atd,51.03
2023-01-10T06:53:00,atd,47.49
2023-01-10T06:54:00,atd,46.43
2023-01-10T06:55:00,atd,49.73
2023-01-10T06:56:00,atd,49.45
2023-01-10T06:57:00,atd,47.75
2023-01-10T06:58:00,atd,45.41
2023-01-10T06:59:00,atd,44.05
2023-01-10T07:00:00,atd,46.41
2023-01-10T07:01:00,atd,45.40
2023-01-10T07:02:00,atd,45.01
2023-01-10T07:03:00,atd,40.45
2023-01-10T07:04:00,atd,41.19
2023-01-10T07:05:00,atd,42.73
2023-01-10T07:06:00,atd,40.21
2023-01-10T07:07:00,atd,42.69
2023-01-10T07:08:00,atd,44.85
2023-01-10T07:09:00,atd,44.02
2023-01-10T07:10:00,atd,45.47
2023-01-10T07:11:00,atd,43.90
2023-01-10T07:12:00,atd,44.50
2023-01-10T07:13:00,atd,44.25
2023-01-10T07:14:00,atd,41.57
2023-01-10T07:15:00,atd,45.14
2023-01-10T07:16:00,atd,39.75
2023-01-10T07:17:00,atd,44.62
2023-01-10T07:18:00,atd,39.57
2023-01-10T07:19:00,atd,37.21
2023-01-10T07:20:00,atd,41.38
2023-01-10T07:21:00,atd,38.09
2023-01-10T07:22:00,atd,50.34
2023-01-10T07:23:00,atd,45.88
2023-01-10T07:24:00,atd,41.80
2023-01-10T07:25:00,atd,47.64
2023-01-10T07:26:00,atd,45.87
2023-01-10T07:27:00,atd,59.45
2023-01-10T07:28:00,atd,50.50
2023-01-10T07:29:00,atd,51.26
2023-01-10T07:30:00,atd,50.29
2023-01-10T07:31:00,atd,44.30
2023-01-10T07:32:00,atd,41.90
2023-01-10T07:33:00,atd,43.25
2023-01-10T07:34:00,atd,45.57
2023-01-10T07:35:00,atd,40.29
2023-01-10T07:36:00,atd,37.16
2023-01-10T07:37:00,atd,41.25
2023-01-10T07:38:00,atd,56.91
2023-01-10T07:39:00,atd,35.62
2023-01-10T07:40:00,atd,38.59
2023-01-10T07:41:00,atd,38.16
2023-01-10T07:42:00,atd,35.81
2023-01-10T07:43:00,atd,37.94
2023-01-10T07:44:00,atd,34.38
2023-01-10T07:45:00,atd,40.48
2023-01-10T07:46:00,atd,38.08
2023-01-10T07:47:00,atd,35.41
2023-01-10T07:48:00,atd,38.30
2023-01-10T07:49:00,atd,34.73
2023-01-10T07:50:00,atd,34.74
2023-01-10T07:51:00,atd,33.84
2023-01-10T07:52:00,atd,39.57
2023-01-10T07:53:00,atd,37.76
2023-01-10T07:54:00,atd,35.20
2023-01-10T07:55:00,atd,36.03
2023-01-10T07:56:00,atd,39.35
2023-01-10T07:57:00,atd,37.42
2023-01-10T07:58:00,atd,37.18
2023-01-10T07:59:00,atd,36.66
2023-01-10T08:00:00,atd,34.70
2023-01-10T08:01:00,atd,38.53
2023-01-10T08:02:00,atd,41.69
2023-01-10T08:03:00,atd,42.18
2023-01-10T08:04:00,atd,39.52
2023-01-10T08:05:00,atd,40.51
2023-01-10T08:06:00,atd,42.19
2023-01-10T08:07:00,atd,39.03
2023-01-10T08:08:00,atd,40.04
2023-01-10T08:09:00,atd,34.65
2023-01-10T08:10:00,atd,33.16
2023-01-10T08:11:00,atd,33.68
2023-01-10T08:12:00,atd,37.28
2023-01-10T08:13:00,atd,39.55
2023-01-10T08:14:00,atd,38.54
2023-01-10T08:15:00,atd,40.26
2023-01-10T08:16:00,atd,56.45
2023-01-10T08:17:00,atd,42.97
2023-01-10T08:18:00,atd,43.70
2023-01-10T08:19:00,atd,38.74
2023-01-10T08:20:00,atd,39.88
2023-01-10T08:21:00,atd,39.26
2023-01-10T08:22:00,atd,36.16
2023-01-10T08:23:00,atd,39.68
2023-01-10T08:24:00,atd,40.41
2023-01-10T08:25:00,atd,39.01
2023-01-10T08:26:00,atd,42.53
2023-01-10T08:27:00,atd,37.68
2023-01-10T08:28:00,atd,38.50
2023-01-10T08:29:00,atd,34.64
2023-01-10T08:30:00,atd,34.47
2023-01-10T08:31:00,atd,48.67
2023-01-10T08:32:00,atd,32.10
2023-01-10T08:33:00,atd,34.63
2023-01-10T08:34:00,atd,38.07
2023-01-10T08:35:00,atd,37.31
2023-01-10T08:36:00,atd,47.08
2023-01-10T08:37:00,atd,44.82
2023-01-10T08:38:00,atd,41.33
2023-01-10T08:39:00,atd,39.86
2023-01-10T08:40:00,atd,39.94
2023-01-10T08:41:00,atd,35.24
2023-01-10T08:42:00,atd,39.52
2023-01-10T08:43:00,atd,35.89
2023-01-10T08:44:00,atd,36.74
2023-01-10T08:45:00,atd,37.23
2023-01-10T08:46:00,atd,37.81
2023-01-10T08:47:00,atd,35.72
2023-01-10T08:48:00,atd,35.80
2023-01-10T08:49:00,atd,44.50
2023-01-10T08:50:00,atd,31.00
2023-01-10T08:51:00,atd,33.03
2023-01-10T08:52:00,atd,33.26
2023-01-10T08:53:00,atd,34.38
2023-01-10T08:54:00,atd,36.58
2023-01-10T08:55:00,atd,40.72
2023-01-10T08:56:00,atd,41.39
2023-01-10T08:57:00,atd,45.56
2023-01-10T08:58:00,atd,46.70
2023-01-10T08:59:00,atd,36.43
2023-01-10T09:00:00,atd,42.58
2023-01-10T09:01:00,atd,64.88
2023-01-10T09:02:00,atd,39.43
2023-01-10T09:03:00,atd,36.17
2023-01-10T09:04:00,atd,36.00
2023-01-10T09:05:00,atd,43.73
2023-01-10T09:06:00,atd,38.61
2023-01-10T09:07:00,atd,40.19
2023-01-10T09:08:00,atd,42.29
2023-01-10T09:09:00,atd,43.96
2023-01-10T09:10:00,atd,43.51
2023-01-10T09:11:00,atd,37.64
2023-01-10T09:12:00,atd,40.67
2023-01-10T09:13:00,atd,39.09
2023-01-10T09:14:00,atd,40.65
2023-01-10T09:15:00,atd,39.37
2023-01-10T09:16:00,atd,37.72
2023-01-10T09:17:00,atd,40.85
2023-01-10T09:18:00,atd,39.09
2023-01-10T09:19:00,atd,43.88
2023-01-10T09:20:00,atd,46.15
2023-01-10T09:21:00,atd,52.50
2023-01-10T09:22:00,atd,62.20
2023-01-10T09:23:00,atd,49.37
2023-01-10T09:24:00,atd,46.46
2023-01-10T09:25:00,atd,53.62
2023-01-10T09:26:00,atd,50.36
2023-01-10T09:27:00,atd,56.36
2023-01-10T09:28:00,atd,60.54
2023-01-10T09:29:00,atd,57.03
2023-01-10T09:30:00,atd,62.63
2023-01-10T09:31:00,atd,79.08
2023-01-10T09:32:00,atd,77.17
2023-01-10T09:33:00,atd,59.54
2023-01-10T09:34:00,atd,59.40
2023-01-10T09:35:00,atd,64.17
2023-01-10T09:36:00,atd,64.85
2023-01-10T09:37:00,atd,56.58
2023-01-10T09:38:00,atd,60.34
2023-01-10T09:39:00,atd,59.88
2023-01-10T09:40:00,atd,55.51
2023-01-10T09:41:00,atd,59.36
2023-01-10T09:42:00,atd,65.88
2023-01-10T09:43:00,atd,64.65
2023-01-10T09:44:00,atd,61.04
2023-01-10T09:45:00,atd,56.19
2023-01-10T09:46:00,atd,67.50
2023-01-10T09:47:00,atd,60.81
2023-01-10T09:48:00,atd,62.77
2023-01-10T09:49:00,atd,65.13
2023-01-10T09:50:00,atd,62.97
2023-01-10T09:51:00,atd,56.82
2023-01-10T09:52:00,atd,51.83
2023-01-10T09:53:00,atd,57.79
2023-01-10T09:54:00,atd,67.30
2023-01-10T09:55:00,atd,53.49
2023-01-10T09:56:00,atd,52.77
2023-01-10T09:57:00,atd,67.61
2023-01-10T09:58:00,atd,55.95
2023-01-10T09:59:00,atd,60.38
2023-01-10T10:00:00,atd,57.85
2023-01-10T10:01:00,atd,55.94
2023-01-10T10:02:00,atd,57.67
2023-01-10T10:03:00,atd,56.91
2023-01-10T10:04:00,atd,78.17
2023-01-10T10:05:00,atd,63.55
2023-01-10T10:06:00,atd,65.23
2023-01-10T10:07:00,atd,76.11
2023-01-10T10:08:00,atd,68.26
2023-01-10T10:09:00,atd,60.03
2023-01-10T10:10:00,atd,59.58
2023-01-10T10:11:00,atd,58.36
2023-01-10T10:12:00,atd,58.45
2023-01-10T10:13:00,atd,57.64
2023-01-10T10:14:00,atd,60.83
2023-01-10T10:15:00,atd,66.58
2023-01-10T10:16:00,atd,72.40
2023-01-10T10:17:00,atd,65.44
2023-01-10T10:18:00,atd,72.08
2023-01-10T10:19:00,atd,74.22
2023-01-10T10:20:00,atd,67.09
2023-01-10T10:21:00,atd,64.28
2023-01-10T10:22:00,atd,64.04
2023-01-10T10:23:00,atd,68.30
2023-01-10T10:24:00,atd,65.73
2023-01-10T10:25:00,atd,64.35
2023-01-10T10:26:00,atd,68.64
2023-01-10T10:27:00,atd,72.81
2023-01-10T10:28:00,atd,64.23
2023-01-10T10:29:00,atd,64.89
2023-01-10T10:30:00,atd,67.56
2023-01-10T10:31:00,atd,72.02
2023-01-10T10:32:00,atd,72.41
2023-01-10T10:33:00,atd,66.67
2023-01-10T10:34:00,atd,63.48
2023-01-10T10:35:00,atd,63.06
2023-01-10T10:36:00,atd,70.63
2023-01-10T10:37:00,atd,84.19
2023-01-10T10:38:00,atd,71.18
2023-01-10T10:39:00,atd,75.87
2023-01-10T10:40:00,atd,70.86
2023-01-10T10:41:00,atd,74.52
2023-01-10T10:42:00,atd,73.42
2023-01-10T10:43:00,atd,65.79
2023-01-10T10:44:00,atd,75.58
2023-01-10T10:45:00,atd,51.87
2023-01-10T10:46:00,atd,61.92
2023-01-10T10:47:00,atd,70.77
2023-01-10T10:48:00,atd,61.92
2023-01-10T10:49:00,atd,65.78
2023-01-10T10:50:00,atd,73.74
2023-01-10T10:51:00,atd,71.75
2023-01-10T10:52:00,atd,70.28
2023-01-10T10:53:00,atd,75.75
2023-01-10T10:54:00,atd,75.65
2023-01-10T10:55:00,atd,80.67
2023-01-10T10:56:00,atd,79.20
2023-01-10T10:57:00,atd,67.73
2023-01-10T10:58:00,atd,56.58
2023-01-10T10:59:00,atd,64.28
2023-01-10T11:00:00,atd,56.69
2023-01-10T11:01:00,atd,61.11
2023-01-10T11:02:00,atd,58.05
2023-01-10T11:03:00,atd,58.18
2023-01-10T11:04:00,atd,64.47
2023-01-10T11:05:00,atd,60.77
2023-01-10T11:06:00,atd,54.97
2023-01-10T11:07:00,atd,67.53
2023-01-10T11:08:00,atd,55.67
2023-01-10T11:09:00,atd,55.11
2023-01-10T11:10:00,atd,66.54
2023-01-10T11:11:00,atd,60.46
2023-01-10T11:12:00,atd,68.04
2023-01-10T11:13:00,atd,66.12
2023-01-10T11:14:00,atd,58.07
2023-01-10T11:15:00,atd,68.53
2023-01-10T11:16:00,atd,75.70
2023-01-10T11:17:00,atd,67.48
2023-01-10T11:18:00,atd,72.22
2023-01-10T11:19:00,atd,67.79
2023-01-10T11:20:00,atd,60.95
2023-01-10T11:21:00,atd,71.33
2023-01-10T11:22:00,atd,64.40
2023-01-10T11:23:00,atd,59.75
2023-01-10T11:24:00,atd,73.06
2023-01-10T11:25:00,atd,61.44
2023-01-10T11:26:00,atd,85.85
2023-01-10T11:27:00,atd,82.81
2023-01-10T11:28:00,atd,72.39
2023-01-10T11:29:00,atd,84.34
2023-01-10T11:30:00,atd,68.60
2023-01-10T11:31:00,atd,82.49
2023-01-10T11:32:00,atd,75.00
2023-01-10T11:33:00,atd,79.00
2023-01-10T11:34:00,atd,59.89
2023-01-10T11:35:00,atd,78.90
2023-01-10T11:36:00,atd,69.74
2023-01-10T11:37:00,atd,84.94
2023-01-10T11:38:00,atd,80.85
2023-01-10T11:39:00,atd,81.79
2023-01-10T11:40:00,atd,77.97
2023-01-10T11:41:00,atd,76.40
2023-01-10T11:42:00,atd,68.07
2023-01-10T11:43:00,atd,71.44
2023-01-10T11:44:00,atd,58.27
2023-01-10T11:45:00,atd,71.79
2023-01-10T11:46:00,atd,69.41
2023-01-10T11:47:00,atd,65.74
2023-01-10T11:48:00,atd,65.43
2023-01-10T11:49:00,atd,84.43
2023-01-10T11:50:00,atd,64.62
2023-01-10T11:51:00,atd,83.48
2023-01-10T11:52:00,atd,73.82
2023-01-10T11:53:00,atd,72.09
2023-01-10T11:54:00,atd,69.53
2023-01-10T11:55:00,atd,66.28
2023-01-10T11:56:00,atd,62.63
2023-01-10T11:57:00,atd,67.34
2023-01-10T11:58:00,atd,57.88
2023-01-10T11:59:00,atd,57.39
2023-01-10T12:00:00,atd,66.84
2023-01-10T12:01:00,atd,65.67
2023-01-10T12:02:00,atd,70.04
2023-01-10T12:03:00,atd,69.81
2023-01-10T12:04:00,atd,62.89
2023-01-10T12:05:00,atd,64.88
2023-01-10T12:06:00,atd,60.49
2023-01-10T12:07:00,atd,92.25
2023-01-10T12:08:00,atd,65.26
2023-01-10T12:09:00,atd,61.69
2023-01-10T12:10:00,atd,60.29
2023-01-10T12:11:00,atd,68.04
2023-01-10T12:12:00,atd,62.12
2023-01-10T12:13:00,atd,65.65
2023-01-10T12:14:00,atd,61.55
2023-01-10T12:15:00,atd,60.59
2023-01-10T12:16:00,atd,71.28
2023-01-10T12:17:00,atd,80.75
2023-01-10T12:18:00,atd,69.20
2023-01-10T12:19:00,atd,76.76
2023-01-10T12:20:00,atd,77.09
2023-01-10T12:21:00,atd,82.13
2023-01-10T12:22:00,atd,69.45
2023-01-10T12:23:00,atd,65.92
2023-01-10T12:24:00,atd,80.68
2023-01-10T12:25:00,atd,62.55
2023-01-10T12:26:00,atd,70.83
2023-01-10T12:27:00,atd,74.96
2023-01-10T12:28:00,atd,75.72
2023-01-10T12:29:00,atd,68.13
2023-01-10T12:30:00,atd,66.76
2023-01-10T12:31:00,atd,61.63
2023-01-10T12:32:00,atd,64.75
2023-01-10T12:33:00,atd,63.38
2023-01-10T12:34:00,atd,56.34
2023-01-10T12:35:00,atd,61.02
2023-01-10T12:36:00,atd,64.56
2023-01-10T12:37:00,atd,64.32
2023-01-10T12:38:00,atd,74.27
2023-01-10T12:39:00,atd,67.62
2023-01-10T12:40:00,atd,71.81
2023-01-10T12:41:00,atd,85.84
2023-01-10T12:42:00,atd,64.76
2023-01-10T12:43:00,atd,72.46
2023-01-10T12:44:00,atd,74.24
2023-01-10T12:45:00,atd,71.51
2023-01-10T12:46:00,atd,87.66
2023-01-10T12:47:00,atd,81.05
2023-01-10T12:48:00,atd,83.99
2023-01-10T12:49:00,atd,86.20
2023-01-10T12:50:00,atd,77.33
2023-01-10T12:51:00,atd,80.47
2023-01-10T12:52:00,atd,75.04
2023-01-10T12:53:00,atd,78.20
2023-01-10T12:54:00,atd,71.59
2023-01-10T12:55:00,atd,83.42
2023-01-10T12:56:00,atd,79.95
2023-01-10T12:57:00,atd,75.03
2023-01-10T12:58:00,atd,79.37
2023-01-10T12:59:00,atd,70.25
2023-01-10T13:00:00,atd,63.26
2023-01-10T13:01:00,atd,72.59
2023-01-10T13:02:00,atd,68.15
2023-01-10T13:03:00,atd,66.97
2023-01-10T13:04:00,atd,81.68
2023-01-10T13:05:00,atd,68.16
2023-01-10T13:06:00,atd,73.44
2023-01-10T13:07:00,atd,75.57
2023-01-10T13:08:00,atd,70.17
2023-01-10T13:09:00,atd,71.41
2023-01-10T13:10:00,atd,81.15
2023-01-10T13:11:00,atd,74.49
2023-01-10T13:12:00,atd,82.37
2023-01-10T13:13:00,atd,91.62
2023-01-10T13:14:00,atd,63.69
2023-01-10T13:15:00,atd,69.64
2023-01-10T13:16:00,atd,69.16
2023-01-10T13:17:00,atd,76.45
2023-01-10T13:18:00,atd,81.97